Terminal Aerodrome Forecast
Issued by NWS Duluth, MN

Home | Current Version | Previous Version | Text Only | Print | Product List | Glossary On
Versions: 1 2 3 4 5 6 7 8 9 10 11 12 13 14 15 16 17 18 19
000
FTUS43 KDLH 061700
TAFINL
TAF
KINL 061739Z 0618/0718 28010KT P6SM SCT030
     FM070000 22006KT P6SM BKN080
     FM070200 23006KT 6SM -SN SCT025 BKN040
      TEMPO 0702/0706 2SM -SN SCT010 BKN025
     FM070700 29010KT P6SM BKN025 OVC050=

USA.gov is the U.S. government's official web portal to all federal, state and local government web resources and services.